Weather History for Erzincan, Turkey

Change the Weather History Date:

Thursday, May 9, 2013

  Actual Average Record
Temperature  
Mean Temperature 60 °F -  
Max Temperature 78 °F 74 °F - ()
Min Temperature 41 °F 49 °F - ()
Degree Days  
Heating Degree Days 6    
Growing Degree Days 10 (Base 50)    
Moisture  
Dew Point 41 °F    
Average Humidity 50    
Maximum Humidity 93    
Minimum Humidity 11    
Precipitation  
Precipitation 0.00 in 0.06 in - ()
Sea Level Pressure  
Sea Level Pressure 30.00 in    
Wind  
Wind Speed 3 mph ()    
Max Wind Speed 9 mph    
Max Gust Speed -    
Visibility 6.8 miles    
Events      
T = Trace of Precipitation, MM = Missing Value Source: Averaged Metar Reports

Daily Weather History Graph

Daily Weather History Graph

Search for Another Location

Airport:

Trip Planner

Search our weather history database for the weather conditions in past years. The results will help you decide how hot, cold, wet, or windy it might be!

Date:

Astronomy

May. 09, 2013 Rise Set
Actual Time 5:13 AM EEST 7:23 PM EEST
Civil Twilight 4:43 AM EEST 7:53 PM EEST
Nautical Twilight 4:06 AM EEST 8:30 PM EEST
Astronomical Twilight 3:26 AM EEST 9:10 PM EEST
Moon 4:44 AM EEST (5/9) 6:58 PM EEST (5/9)
Length of Visible Light 15h 10m
Length of Day
14h 10m
Waning Crescent, 0% of the Moon is Illuminated
May 9
Waning Crescent
May 10
New
May 18
First Quarter
May 25
Full
May 31
Last Quarter

Hourly Weather History & Observations

Time (EEST) Temp. Dew Point Humidity Pressure Visibility Wind Dir Wind Speed Gust Speed Precip Events Conditions
12:50 AM 50.0 °F 44.6 °F 82% 30.04 in 6.2 mi Variable 1.2 mph - N/A   Scattered Clouds
1:50 AM 46.4 °F 42.8 °F 87% 30.04 in 6.2 mi Variable 1.2 mph - N/A   Scattered Clouds
3:00 AM 45 °F 43 °F 91%  in 6 mi West 3.5 mph - -   Partly Cloudy
3:50 AM 42.8 °F 41.0 °F 93% 30.04 in 6.2 mi Variable 1.2 mph - N/A   Scattered Clouds
4:50 AM 42.8 °F 39.2 °F 87% 30.04 in 6.2 mi Variable 1.2 mph - N/A   Partly Cloudy
5:50 AM 42.8 °F 41.0 °F 93% 30.04 in - Variable 1.2 mph - N/A   Clear
6:50 AM 48.2 °F 44.6 °F 87% 30.06 in - Variable 1.2 mph - N/A   Clear
7:50 AM 55.4 °F 46.4 °F 72% 30.06 in - Variable 1.2 mph - N/A   Clear
8:50 AM 59.0 °F 44.6 °F 59% 30.06 in - Variable 2.3 mph - N/A   Clear
9:00 AM 59 °F 45 °F 49%  in 12 mi SSE 2.3 mph - -  
9:50 AM 62.6 °F 44.6 °F 52% 30.06 in 6.2 mi Variable 1.2 mph - N/A   Partly Cloudy
10:50 AM 68.0 °F 42.8 °F 40% 30.04 in 6.2 mi Variable 2.3 mph - N/A   Partly Cloudy
11:50 AM 71.6 °F 42.8 °F 35% 30.01 in 6.2 mi Variable 3.5 mph - N/A   Partly Cloudy
12:50 PM 73.4 °F 39.2 °F 29% 30.01 in 6.2 mi SE 4.6 mph - N/A   Scattered Clouds
1:50 PM 75.2 °F 37.4 °F 25% 29.98 in 6.2 mi Variable 3.5 mph - N/A   Scattered Clouds
2:50 PM 77.0 °F 33.8 °F 21% 29.95 in 6.2 mi Variable 3.5 mph - N/A   Scattered Clouds
3:00 PM 78 °F 33 °F 11%  in 9 mi NNE 3.5 mph - -   Partly Cloudy
3:50 PM 77.0 °F 32.0 °F 19% 29.92 in 6.2 mi West 6.9 mph - N/A   Scattered Clouds
4:50 PM 77.0 °F 35.6 °F 22% 29.92 in 6.2 mi WSW 9.2 mph - N/A   Mostly Cloudy
5:50 PM 75.2 °F 35.6 °F 24% 29.89 in 6.2 mi West 8.1 mph - N/A   Mostly Cloudy
6:50 PM 71.6 °F 39.2 °F 31% 29.92 in 6.2 mi Variable 2.3 mph - N/A   Mostly Cloudy
7:50 PM 69.8 °F 37.4 °F 31% 29.92 in 6.2 mi North 6.9 mph - N/A   Mostly Cloudy
8:50 PM 66.2 °F 41.0 °F 40% 29.95 in 6.2 mi SSE 9.2 mph - N/A   Mostly Cloudy
9:00 PM 67 °F 41 °F 27%  in 12 mi SSE 9.2 mph - -   Partly Cloudy
9:50 PM 66.2 °F 41.0 °F 40% 29.98 in 6.2 mi WNW 5.8 mph - N/A   Mostly Cloudy
10:50 PM 62.6 °F 42.8 °F 48% 29.98 in 6.2 mi East 4.6 mph - N/A   Mostly Cloudy
11:50 PM 60.8 °F 42.8 °F 52% 29.98 in 6.2 mi Calm Calm - N/A   Mostly Cloudy